Retour au catalogue

STARLINK-11633

ActifCommunicationsVLEO
NORAD 63317·PAYLOAD·🇺🇸 United States

Lancé Mar 18, 2025 depuis Cape Canaveral Space Force Station

Loading…

Prochains Passages (prochaines 24 heures)

TLE

FraisSource: CelesTrak SupGP

Époque: Sep 14, 2026, 20:42 UTC

1 63317C 25057L   26257.86298611  .00067742  00000+0  52638-3 0  2571
2 63317  43.0007 203.8464 0001717 248.8457 131.7167 15.70794105    13

Suivez STARLINK-11633 en temps réel avec AllMySat

Download on the App Store